Glenwood, MN

5:49 AM CDT on May 28, 2018 (GMT -0500)
Glenwood Municipal

Weather History for KGHW - March, 2013

Change the Weather History Date:

Friday, March 15, 2013

  Actual Average Record
Temperature  
Mean Temperature 26 °F -  
Max Temperature 30 °F 38 °F 69 °F (2015)
Min Temperature 21 °F 18 °F -13 °F (1997)
Degree Days  
Heating Degree Days 40    
Moisture  
Dew Point 26 °F    
Average Humidity 93    
Maximum Humidity 100    
Minimum Humidity 86    
Precipitation  
Precipitation 0.15 in - - ()
Sea Level Pressure  
Sea Level Pressure 29.92 in    
Wind  
Wind Speed 9 mph (NE)    
Max Wind Speed 14 mph    
Max Gust Speed -    
Visibility 5 miles    
Events Snow    
Averages and records for this station are not official NWS values.
T = Trace of Precipitation, MM = Missing Value Source: NWS Daily Summary

Daily Weather History Graph

Daily Weather History Graph

Search for Another Location

Airport or City:

Astronomy

Mar. 15, 2013 Rise Set
Actual Time 7:33 AM CDT 7:27 PM CDT
Civil Twilight 7:03 AM CDT 7:57 PM CDT
Nautical Twilight 6:29 AM CDT 8:31 PM CDT
Astronomical Twilight 5:54 AM CDT 9:07 PM CDT
Moon 9:10 AM CDT (3/15) 11:57 PM CDT (3/15)
Length of Visible Light 12h 53m
Length of Day
11h 54m
Waxing Crescent, 15% of the Moon is Illuminated
Mar 15
Waxing Crescent
Mar 19
First Quarter
Mar 27
Full
Apr 2
Last Quarter
Apr 10
New

Hourly Weather History & Observations

Time (CDT) Temp. Windchill Dew Point Humidity Pressure Visibility Wind Dir Wind Speed Gust Speed Precip Events Conditions
12:14 AM 26.6 °F 19.1 °F 26.6 °F 100% 29.98 in 5.0 mi North 6.9 mph - N/A   Mostly Cloudy
12:33 AM 26.6 °F 20.0 °F 26.6 °F 100% 29.98 in 5.0 mi North 5.8 mph - N/A   Overcast
12:53 AM 28.4 °F 22.2 °F 26.6 °F 93% 29.98 in 7.0 mi WNW 5.8 mph - N/A   Mostly Cloudy
1:14 AM 28.4 °F 21.2 °F 26.6 °F 93% 29.99 in 5.0 mi NW 6.9 mph - N/A   Scattered Clouds
1:33 AM 28.4 °F 23.3 °F 26.6 °F 93% 29.98 in 5.0 mi NW 4.6 mph - N/A   Mostly Cloudy
1:53 AM 28.4 °F 21.2 °F 26.6 °F 93% 29.99 in 5.0 mi NNW 6.9 mph - N/A   Scattered Clouds
2:14 AM 28.4 °F 19.7 °F 26.6 °F 93% 30.00 in 5.0 mi NW 9.2 mph - N/A   Scattered Clouds
2:33 AM 28.4 °F 20.4 °F 26.6 °F 93% 29.99 in 7.0 mi North 8.1 mph - N/A   Scattered Clouds
2:53 AM 28.4 °F 19.7 °F 26.6 °F 93% 30.00 in 5.0 mi NNW 9.2 mph - N/A   Scattered Clouds
3:14 AM 28.4 °F 19.1 °F 26.6 °F 93% 29.97 in 5.0 mi North 10.4 mph - N/A   Mostly Cloudy
3:33 AM 28.4 °F 21.2 °F 26.6 °F 93% 29.98 in 5.0 mi North 6.9 mph - N/A   Overcast
3:53 AM 28.4 °F 19.7 °F 26.6 °F 93% 29.98 in 4.0 mi North 9.2 mph - N/A   Overcast
4:13 AM 28.4 °F 19.7 °F 26.6 °F 93% 29.96 in 4.0 mi NNE 9.2 mph - N/A   Overcast
4:33 AM 28.4 °F 18.0 °F 26.6 °F 93% 29.94 in 4.0 mi NNE 12.7 mph - N/A   Overcast
4:53 AM 28.4 °F 17.5 °F 26.6 °F 93% 29.92 in 4.0 mi NNE 13.8 mph - N/A   Overcast
5:13 AM 28.4 °F 18.0 °F 28.4 °F 100% 29.93 in 4.0 mi NNE 12.7 mph - N/A   Overcast
5:33 AM 30.2 °F 21.9 °F 28.4 °F 93% 29.94 in 3.0 mi NE 9.2 mph - 0.01 in   Overcast
5:53 AM 30.2 °F 25.4 °F 28.4 °F 93% 29.95 in 3.0 mi NE 4.6 mph - 0.02 in   Overcast
6:13 AM 30.2 °F 25.4 °F 28.4 °F 93% 29.96 in 3.0 mi NNE 4.6 mph - 0.03 in   Overcast
6:33 AM 30.2 °F 21.9 °F 28.4 °F 93% 29.95 in 3.0 mi NNE 9.2 mph - 0.05 in   Overcast
6:54 AM 30.2 °F 21.3 °F 28.4 °F 93% 29.94 in 2.5 mi NE 10.4 mph - 0.07 in   Overcast
7:13 AM 30.2 °F 20.2 °F 28.4 °F 93% 29.92 in 3.0 mi NE 12.7 mph - 0.02 in   Overcast
7:33 AM 30.2 °F 21.9 °F 28.4 °F 93% 29.93 in 4.0 mi NE 9.2 mph - 0.03 in   Overcast
7:54 AM 30.2 °F 20.2 °F 28.4 °F 93% 29.92 in 2.5 mi NE 12.7 mph - 0.03 in   Overcast
8:13 AM 30.2 °F 20.2 °F 28.4 °F 93% 29.92 in 3.0 mi NE 12.7 mph - N/A   Overcast
8:33 AM 28.4 °F 18.0 °F 28.4 °F 100% 29.93 in 4.0 mi NE 12.7 mph - N/A   Overcast
8:54 AM 28.4 °F 19.1 °F 28.4 °F 100% 29.94 in 4.0 mi NNE 10.4 mph - N/A   Overcast
9:13 AM 28.4 °F 17.5 °F 28.4 °F 100% 29.92 in 4.0 mi NE 13.8 mph - N/A   Overcast
9:33 AM 28.4 °F 18.0 °F 28.4 °F 100% 29.92 in 4.0 mi NE 12.7 mph - N/A   Overcast
9:54 AM 28.4 °F 18.5 °F 26.6 °F 93% 29.93 in 4.0 mi NE 11.5 mph - N/A   Overcast
10:13 AM 28.4 °F 18.5 °F 26.6 °F 93% 29.93 in 4.0 mi NNE 11.5 mph - N/A   Overcast
10:33 AM 28.4 °F 19.7 °F 26.6 °F 93% 29.93 in 4.0 mi NE 9.2 mph - N/A   Overcast
10:54 AM 28.4 °F 21.2 °F 26.6 °F 93% 29.94 in 2.0 mi NE 6.9 mph - N/A Snow Light Snow
11:13 AM 30.2 °F 21.9 °F 26.6 °F 86% 29.92 in 2.5 mi ENE 9.2 mph - N/A Snow Light Snow
11:33 AM 30.2 °F 21.9 °F 28.4 °F 93% 29.92 in 1.8 mi NE 9.2 mph - N/A Snow Light Snow
11:54 AM 30.2 °F 21.9 °F 28.4 °F 93% 29.92 in 3.0 mi NE 9.2 mph - N/A Snow Light Snow
12:13 PM 30.2 °F 21.9 °F 26.6 °F 86% 29.93 in 5.0 mi NE 9.2 mph - N/A Snow Light Snow
12:33 PM 30.2 °F 21.9 °F 26.6 °F 86% 29.92 in 5.0 mi NE 9.2 mph - N/A   Overcast
12:54 PM 30.2 °F 21.9 °F 26.6 °F 86% 29.92 in 10.0 mi NE 9.2 mph - N/A   Overcast
1:13 PM 30.2 °F 20.8 °F 26.6 °F 86% 29.91 in 7.0 mi ENE 11.5 mph - N/A   Overcast
1:33 PM 30.2 °F 21.3 °F 26.6 °F 86% 29.91 in 7.0 mi ENE 10.4 mph - N/A   Overcast
1:54 PM 30.2 °F 20.2 °F 26.6 °F 86% 29.90 in 7.0 mi ENE 12.7 mph - N/A   Overcast
2:13 PM 30.2 °F 21.3 °F 26.6 °F 86% 29.89 in 10.0 mi ENE 10.4 mph - N/A   Overcast
2:33 PM 30.2 °F 20.8 °F 26.6 °F 86% 29.88 in 10.0 mi ENE 11.5 mph - N/A   Overcast
2:54 PM 30.2 °F 21.9 °F 26.6 °F 86% 29.87 in 7.0 mi ENE 9.2 mph - N/A Snow Light Snow
3:13 PM 30.2 °F 21.9 °F 26.6 °F 86% 29.87 in 7.0 mi ENE 9.2 mph - N/A Snow Light Snow
3:33 PM 30.2 °F 19.8 °F 26.6 °F 86% 29.85 in 4.0 mi East 13.8 mph - N/A Snow Light Snow
3:54 PM 30.2 °F 21.3 °F 26.6 °F 86% 29.84 in 2.0 mi East 10.4 mph - N/A Snow Light Snow
4:13 PM 28.4 °F 18.0 °F 26.6 °F 93% 29.83 in 0.8 mi East 12.7 mph - N/A Snow Light Snow
4:33 PM 28.4 °F 19.1 °F 26.6 °F 93% 29.84 in 1.0 mi ENE 10.4 mph - N/A Snow Light Snow
4:54 PM 28.4 °F 20.4 °F 26.6 °F 93% 29.86 in 1.2 mi NE 8.1 mph - 0.01 in Snow Light Snow
5:13 PM 28.4 °F 18.5 °F 26.6 °F 93% 29.84 in 4.0 mi NE 11.5 mph - N/A Snow Light Snow
5:33 PM 28.4 °F 18.5 °F 26.6 °F 93% 29.84 in 1.2 mi NE 11.5 mph - N/A Snow Light Snow
5:53 PM 28.4 °F 18.0 °F 26.6 °F 93% 29.85 in 1.2 mi NE 12.7 mph - N/A Snow Light Snow
6:13 PM 28.4 °F 20.4 °F 26.6 °F 93% 29.85 in 0.5 mi NE 8.1 mph - 0.01 in Snow Snow
6:33 PM 26.6 °F 16.2 °F 26.6 °F 100% 29.86 in 0.8 mi NNE 11.5 mph - 0.01 in Snow Light Snow
6:53 PM 26.6 °F 16.8 °F 26.6 °F 100% 29.86 in 0.8 mi NE 10.4 mph - 0.02 in Snow Light Snow
7:13 PM 26.6 °F 16.2 °F 26.6 °F 100% 29.85 in 1.2 mi NE 11.5 mph - N/A Snow Light Snow
7:34 PM 26.6 °F 17.5 °F 24.8 °F 93% 29.87 in 4.0 mi NE 9.2 mph - N/A Snow Light Snow
7:53 PM 26.6 °F - 24.8 °F 93% 29.86 in 5.0 mi Calm Calm - N/A Snow Light Snow
8:13 PM 26.6 °F 16.2 °F 24.8 °F 93% 29.88 in 10.0 mi NE 11.5 mph - N/A   Overcast
8:34 PM 26.6 °F 16.2 °F 24.8 °F 93% 29.88 in 3.0 mi NE 11.5 mph - N/A   Overcast
8:53 PM 24.8 °F 14.0 °F 24.8 °F 100% 29.89 in 3.0 mi ENE 11.5 mph - N/A   Overcast
9:13 PM 24.8 °F 13.4 °F 23.0 °F 93% 29.90 in 3.0 mi ENE 12.7 mph - N/A   Overcast
9:53 PM 24.8 °F 14.6 °F 21.2 °F 86% 29.91 in 10.0 mi NE 10.4 mph - N/A   Overcast
10:13 PM 23.0 °F 12.4 °F 21.2 °F 93% 29.91 in 10.0 mi ENE 10.4 mph - N/A   Overcast
10:34 PM 23.0 °F 12.4 °F 21.2 °F 93% 29.92 in 10.0 mi NE 10.4 mph - N/A   Overcast
10:51 PM 21.2 °F 10.9 °F 21.2 °F 100% 29.92 in 10.0 mi NE 9.2 mph - N/A   Overcast
11:13 PM 21.2 °F 10.1 °F 21.2 °F 100% 29.93 in 10.0 mi NNE 10.4 mph - N/A   Overcast
11:33 PM 21.2 °F 10.1 °F 19.4 °F 93% 29.94 in 10.0 mi NE 10.4 mph - N/A   Overcast
11:54 PM 21.2 °F 10.9 °F 21.2 °F 100% 29.94 in 4.0 mi NNE 9.2 mph - N/A   Overcast